星链-37420(STARLINK-37420)
导读
STARLINK-37420(NORAD编号69511)是美国SpaceX公司星链低轨通信星座的组网卫星,属于第二代星链系列,搭载激光星间链路,可支持100Gbps星间传输速率,单星覆盖直径约80-100公里,支持传统相控阵终端最高300Mbps下行通信,时延低于50ms。该卫星目前在轨运行稳定,与星座内其他卫星协同,为全球偏远地区、航空海事等场景提供无地面网络覆盖区域的宽带接入服务,是星链实现全球通信覆盖的组成单元之一。
Basic Information
目录编号:
69511
目录名称:
STARLINK-37420
国际标识:
2026-133D
轨道中心:
EARTH
卫星名称:
星链-37420
卫星全名:
星链-37420(STARLINK-37420)
卫星状态:
在轨 (已飞行84 天)
发射日期:
2026-06-12 UTC
国别 :
美国
(US)
星等 :
--
Orbit Information
| 数据来源 | 国际轨道数据 |
| 星历时间: | 2026-09-02T22:25:00+0800 1天前 查看轨道信息 |
| 半长轴: | 6840.763km |
| 偏心率: | 0.000114 |
| 轨道倾角: | 53.157° |
| 近地点辐角 | 82.540° |
| 升交点赤经 | 313.561° |
| 平近点角 | 277.574° |
| 近地点: | 461.846km |
| 远地点: | 463.406km |
| 周期: | 93.846分钟 |
| 每日圈数: | 15.34426 |
Detailed Information
固有亮度:
5
最大亮度:
2.5
卫星平台:
Starlink V1.0
覆盖范围:
全球
运营商:
太空探索技术公司
运营商所在国:
美国
制造商(研发单位):
太空探索技术公司
制造商所在国:
美国
使用方式:
暂无
Satellite Introduction
Starlink 计划是 SpaceX 推出的全球卫星互联网项目,通过发射低轨道卫星,为全球尤其是偏远地区提供高速、低延迟的互联网服务。自 2019 年起,Starlink 已部署数千颗卫星,旨在缩小全球数字鸿沟,推动互联网普及。该项目还为军事、航空等行业提供通信支持,带来广泛经济效益。
2D Orbit Map
3D Orbit Map
Orbit Altitude Analysis Chart
Orbit Inclination Analysis Chart
Orbit Comprehensive Analysis Chart
View Comprehensive ChartConjunction Data List
| Event ID | Objects | TCA | Miss Dist (km) | Collision Risk Probability | Collision Risk Index (CRI) | Action |
|---|---|---|---|---|---|---|
| CDM_260905-023604-945506-951121 |
STARLINK-3145
(49455)
STARLINK-37420
(69511) | 2026-09-05T 02:36:05+0000 |
0.592 km
远距离 | 1.207463E-4 高风险 | 0.77 | |
| CDM_260904-201506-044406-951122 |
STARLINK-32249
(60444)
STARLINK-37420
(69511) | 2026-09-04T 20:15:57+0000 |
0.656 km
远距离 | 8.981886E-5 中风险 | 0.74 | |
| CDM_260905-093306-044406-951121 |
STARLINK-32249
(60444)
STARLINK-37420
(69511) | 2026-09-05T 09:33:09+0000 |
0.887 km
远距离 | 3.516858E-5 中风险 | 0.66 | |
| CDM_260904-173806-005506-951121 |
STARLINK-31788
(60055)
STARLINK-37420
(69511) | 2026-09-04T 17:38:16+0000 |
1.624 km
极远距离 | 1.617346E-6 低风险 | 0.39 | |
| CDM_260905-075704-775306-951121 |
STARLINK-2170
(47753)
STARLINK-37420
(69511) | 2026-09-05T 07:57:12+0000 |
2.588 km
极远距离 | 1.441393E-6 低风险 | 0.38 | |
| CDM_260902-095906-460606-951121 |
STARLINK-34073
(64606)
STARLINK-37420
(69511) | 2026-09-02T 09:59:59+0000 |
2.383 km
极远距离 | 1.321392E-6 低风险 | 0.37 | |
| CDM_260904-152504-976606-951121 |
STARLINK-3190
(49766)
STARLINK-37420
(69511) | 2026-09-04T 15:25:06+0000 |
2.595 km
极远距离 | 1.259601E-6 低风险 | 0.37 | |
| CDM_260904-151706-005506-951121 |
STARLINK-31788
(60055)
STARLINK-37420
(69511) | 2026-09-04T 15:17:35+0000 |
2.270 km
极远距离 | 7.398622E-7 极低风险 | 0.32 | |
| CDM_260904-165106-005506-951121 |
STARLINK-31788
(60055)
STARLINK-37420
(69511) | 2026-09-04T 16:51:23+0000 |
2.986 km
极远距离 | 5.029882E-7 极低风险 | 0.29 |

